Regional Weather Roundup
Issued by NWS Sioux Falls, SD

Home | Current Version | Previous Version | Graphics & Text | Print | Product List | Glossary Off
Versions: 1 2 3 4 5 6 7 8 9 10 11 12 13 14 15 16 17 18 19 20 21 22 23 24 25 26 27 28 29 30 31 32 33 34 35 36 37 38 39 40 41 42 43 44 45 46 47 48 49 50

000
ASUS43 KFSD 211710
RWRFSD

WEATHER ROUNDUP FOR SE SOUTH DAKOTA/SW MINNESOTA/NW IOWA
NATIONAL WEATHER SERVICE SIOUX FALLS SD
1200 PM CDT MON AUG 21 2017

NOTE: "FAIR" INDICATES FEW OR NO CLOUDS BELOW 12,000 FEET WITH NO
SIGNIFICANT WEATHER AND OR OBSTRUCTIONS TO VISIBILITY.


SDZ038>040-050-052>070-211800-
SOUTHEAST SOUTH DAKOTA

CITY           SKY/WX    TMP DP  RH WIND       PRES   REMARKS
BROOKINGS      LGT RAIN  66  64  93 S8        30.02F
CHAMBERLAIN    LGT RAIN  65  65 100 E15G30    29.90F
HURON          LGT RAIN  66  65  96 S13       29.97F
MADISON        CLOUDY    66  66 100 N16       30.02F
MITCHELL       CLOUDY    71  67  87 N17G23    29.99S
SIOUX FALLS    TSTM      70  69  97 NE8       29.99R FOG
WINNER         PTSUNNY   63  61  93 S8        29.97F
YANKTON        CLOUDY    79  69  71 SE13      29.91F
$$

MNZ071-072-080-081-089-090-097-098-211800-
SOUTHWEST MINNESOTA

CITY           SKY/WX    TMP DP  RH WIND       PRES   REMARKS
FAIRMONT       CLOUDY    75  66  73 MISG      29.98F
JACKSON        PTSUNNY   73  64  73 CALM      29.98F THUNDER
LUVERNE        TSTM      70  63  78 SW8       30.03R
MARSHALL       TSTM      61  61 100 SE8       30.00F FOG
MONTEVIDEO     TSTM      63  61  94 S10       29.96F
PIPESTONE      CLOUDY    70  66  88 N7        30.05R
REDWOOD FALLS  CLOUDY    72  66  81 W10       29.97F
TRACY          TSTM      67  67  99 NW15G26   30.04R
WINDOM         PTSUNNY   75  68  78 W9        29.97F
WORTHINGTON    CLOUDY    71  67  87 W3        30.03R THUNDER
$$

IAZ001>003-012>014-020>022-031-032-NEZ013-014-SDZ071-211800-
NORTHWEST IOWA

CITY           SKY/WX    TMP DP  RH WIND       PRES   REMARKS
CHEROKEE       MOSUNNY   77  69  77 S17G23    29.92F
DENISON        CLOUDY    75  68  78 S14G22    29.99F
ESTHERVILLE    CLOUDY    73  66  78 CALM      29.97F
ORANGE CITY    MOSUNNY   79  70  73 S17       29.93R
SHELDON        CLOUDY    73  66  78 CALM      29.95R
SIOUX CITY     SUNNY     79  70  74 S16G25    29.94F
SPENCER        TSTM      72  64  76 CALM      29.95F
STORM LAKE     SUNNY     75  68  78 S14G22    29.95F
$$

ABBREVIATIONS USED IN REMARKS
   TC - TEMPERATURE IN CELSIUS
  WCI - WIND CHILL INDEX
   HX - HEAT INDEX
  VSB - VISIBILITY





USA.gov is the U.S. government's official web portal to all federal, state and local government web resources and services.